Date,Time,Wetness (Wet Dry or Ice),Wind Speed (m/s),Temperature (C),Humidity (%),Pressure (mb),Radiation (W/m^2)
2020-12-17,03:30:00,DRY,11.30,3.37,100.0,776.00,29.8
2020-12-17,03:35:00,DRY,10.05,3.50,100.0,776.00,30.4
2020-12-17,03:40:00,DRY,9.47,3.13,100.0,776.00,29.8
2020-12-17,03:45:00,DRY,10.60,3.25,100.0,776.00,29.0
2020-12-17,03:50:00,DRY,9.70,3.10,100.0,776.00,27.7
2020-12-17,03:55:00,DRY,10.75,3.10,100.0,776.00,27.1
2020-12-17,04:00:00,DRY,10.97,3.10,100.0,776.00,26.9
2020-12-17,04:05:00,DRY,11.60,3.20,100.0,776.00,26.8
2020-12-17,04:10:00,DRY,10.50,3.10,100.0,776.00,25.7
2020-12-17,04:15:00,DRY,7.30,3.00,100.0,776.00,26.6
2020-12-17,04:20:00,DRY,8.97,3.07,100.0,776.00,27.2
2020-12-17,04:25:00,DRY,8.85,3.05,100.0,776.00,26.2
2020-12-17,04:30:00,DRY,9.53,3.10,100.0,776.00,25.8
2020-12-17,04:35:00,DRY,10.20,3.10,100.0,776.00,25.2
2020-12-17,04:40:00,DRY,12.47,3.07,100.0,775.67,27.4
2020-12-17,04:45:00,DRY,11.05,3.15,100.0,776.00,26.4
2020-12-17,04:50:00,DRY,10.03,3.23,100.0,776.00,23.5
2020-12-17,04:55:00,WET,8.75,3.30,100.0,776.00,23.1
2020-12-17,05:00:00,DRY,10.03,3.27,100.0,776.00,21.7
2020-12-17,05:05:00,DRY,10.35,3.35,99.0,776.00,21.6
2020-12-17,05:10:00,DRY,10.87,4.00,89.0,776.00,21.1
2020-12-17,05:15:00,DRY,11.85,3.55,93.0,776.00,23.9
2020-12-17,05:20:00,DRY,12.40,3.60,92.0,776.00,23.5
2020-12-17,05:25:00,DRY,11.75,3.35,97.5,776.00,26.2
2020-12-17,05:30:00,DRY,9.73,3.30,99.3,776.00,30.4
2020-12-17,05:35:00,DRY,10.35,3.30,98.5,776.00,28.4
2020-12-17,05:40:00,DRY,9.70,3.23,99.3,776.00,30.5
2020-12-17,05:45:00,DRY,12.30,3.25,99.0,776.00,29.6
2020-12-17,05:50:00,DRY,10.60,3.27,100.0,776.00,31.2
2020-12-17,05:55:00,DRY,10.30,3.30,98.5,776.00,28.4
2020-12-17,06:00:00,DRY,9.93,3.13,99.0,776.00,27.5
2020-12-17,06:05:00,DRY,7.85,3.15,96.0,776.00,25.5
2020-12-17,06:10:00,DRY,8.97,3.23,94.0,776.00,23.9
2020-12-17,06:15:00,DRY,9.90,3.10,94.0,776.00,23.1
2020-12-17,06:20:00,DRY,8.87,2.93,94.0,776.00,21.9
2020-12-17,06:25:00,DRY,10.50,2.95,92.5,776.00,20.0
2020-12-17,06:30:00,DRY,10.03,3.03,90.3,776.00,17.5
2020-12-17,06:35:00,DRY,10.65,3.20,86.0,776.00,14.6
2020-12-17,06:40:00,DRY,11.47,3.70,81.3,776.00,11.2
2020-12-17,06:45:00,DRY,9.75,3.40,85.0,776.00,10.1
2020-12-17,06:50:00,DRY,9.83,2.97,88.3,776.00,10.1
2020-12-17,06:55:00,DRY,10.30,3.55,80.5,776.00,9.4
2020-12-17,07:00:00,DRY,9.97,3.37,84.7,776.00,8.7
2020-12-17,07:05:00,DRY,8.80,3.30,84.0,776.00,7.9
2020-12-17,07:10:00,DRY,8.27,3.40,83.7,776.00,6.6
2020-12-17,07:15:00,DRY,9.40,3.35,83.0,776.00,5.7
2020-12-17,07:20:00,DRY,8.47,3.40,82.0,776.00,5.3
2020-12-17,07:25:00,DRY,7.85,3.40,81.0,776.50,4.7
2020-12-17,07:30:00,DRY,11.00,3.57,79.3,776.00,3.9
2020-12-17,07:35:00,DRY,10.40,3.45,80.5,776.50,3.5
2020-12-17,07:40:00,DRY,11.60,4.33,72.3,776.00,2.8
2020-12-17,07:45:00,DRY,11.75,4.85,68.5,776.50,3.1
2020-12-17,07:50:00,DRY,12.43,5.17,64.7,776.00,4.1
2020-12-17,07:55:00,DRY,12.90,5.50,62.5,776.00,5.8
2020-12-17,08:00:00,DRY,10.70,5.27,64.0,776.00,8.0
2020-12-17,08:05:00,DRY,12.00,5.50,61.0,776.50,10.4
2020-12-17,08:10:00,DRY,10.23,5.53,61.7,777.00,12.4
2020-12-17,08:15:00,DRY,12.40,5.65,60.0,776.00,14.7
2020-12-17,08:20:00,DRY,12.13,5.67,58.3,776.67,17.0
2020-12-17,08:25:00,DRY,9.60,5.50,61.0,776.00,18.8
2020-12-17,08:30:00,DRY,9.17,5.50,60.0,777.00,19.8
2020-12-17,08:35:00,DRY,12.00,5.40,61.0,777.00,22.1
2020-12-17,08:40:00,DRY,10.80,5.53,60.0,777.00,75.7
2020-12-17,08:45:00,DRY,7.90,5.50,60.5,777.00,166.8
2020-12-17,08:50:00,DRY,11.30,5.67,59.0,777.00,185.2
2020-12-17,08:55:00,DRY,10.05,5.60,60.0,777.00,203.6
2020-12-17,09:00:00,DRY,9.10,5.33,62.7,777.00,223.3
2020-12-17,09:05:00,DRY,8.80,5.25,62.0,777.00,243.3
2020-12-17,09:10:00,DRY,9.23,5.43,61.3,777.00,261.6
2020-12-17,09:15:00,DRY,9.00,5.25,62.5,777.00,280.5
2020-12-17,09:20:00,DRY,9.17,5.30,62.7,777.00,299.3
2020-12-17,09:25:00,DRY,9.45,5.20,63.0,777.00,318.5
2020-12-17,09:30:00,DRY,8.40,5.33,61.3,777.00,336.2
2020-12-17,09:35:00,DRY,7.35,5.40,61.5,777.00,354.2
2020-12-17,09:40:00,DRY,7.87,5.37,62.0,777.33,372.6
2020-12-17,09:45:00,DRY,8.50,5.30,62.5,777.00,389.4
2020-12-17,09:50:00,DRY,7.83,5.37,61.0,777.67,407.7
2020-12-17,09:55:00,DRY,9.25,5.50,61.0,778.00,424.3
2020-12-17,10:00:00,DRY,6.40,5.97,59.0,778.00,442.0
2020-12-17,10:05:00,DRY,8.15,5.75,61.5,778.00,458.8
2020-12-17,10:10:00,DRY,8.73,5.83,62.0,778.00,475.7
2020-12-17,10:15:00,DRY,7.10,5.70,62.0,778.00,491.5
2020-12-17,10:20:00,DRY,7.80,6.33,58.3,778.00,508.6
2020-12-17,10:25:00,DRY,7.35,6.45,58.0,778.00,525.8
2020-12-17,10:30:00,DRY,7.37,6.17,60.3,778.00,541.5
2020-12-17,10:35:00,DRY,8.15,6.30,58.5,778.00,560.0
2020-12-17,10:40:00,DRY,7.43,6.20,59.7,778.00,573.7
2020-12-17,10:45:00,DRY,7.95,6.20,58.5,778.00,563.8
2020-12-17,10:50:00,DRY,9.17,6.20,60.0,778.00,490.0
2020-12-17,10:55:00,DRY,6.25,6.55,58.0,778.00,414.8
2020-12-17,11:00:00,DRY,7.53,6.50,56.7,778.00,508.4
2020-12-17,11:05:00,DRY,9.20,6.25,56.5,778.00,487.8
2020-12-17,11:10:00,DRY,8.43,6.60,55.7,778.00,560.6
2020-12-17,11:15:00,DRY,7.10,7.15,52.5,778.00,617.9
2020-12-17,11:20:00,DRY,9.53,7.00,50.7,778.00,647.7
2020-12-17,11:25:00,DRY,9.05,7.50,49.5,778.00,643.0
2020-12-17,11:30:00,DRY,8.80,7.30,52.3,778.00,670.7
2020-12-17,11:35:00,DRY,9.30,7.90,52.5,778.00,688.0
2020-12-17,11:40:00,DRY,8.63,7.70,52.7,778.00,695.2
2020-12-17,11:45:00,DRY,6.70,7.50,53.0,778.00,703.0
2020-12-17,11:50:00,DRY,7.90,7.80,51.3,778.00,710.7
2020-12-17,11:55:00,DRY,6.55,7.75,52.0,778.00,717.0
2020-12-17,12:00:00,DRY,7.60,7.77,52.0,778.00,723.0
2020-12-17,12:05:00,DRY,7.35,7.90,51.5,778.00,729.4
2020-12-17,12:10:00,DRY,7.33,7.80,51.7,778.00,734.8
2020-12-17,12:15:00,DRY,6.30,7.75,53.0,778.00,739.4
2020-12-17,12:20:00,DRY,7.13,7.80,53.3,778.00,744.5
2020-12-17,12:25:00,DRY,6.00,7.85,52.5,778.00,748.8
2020-12-17,12:30:00,DRY,7.73,8.00,51.7,778.00,752.3
2020-12-17,12:35:00,DRY,6.40,8.00,51.5,778.00,755.4
2020-12-17,12:40:00,DRY,5.63,7.53,53.7,778.00,759.3
2020-12-17,12:45:00,DRY,6.60,7.35,56.0,778.00,760.6
2020-12-17,12:50:00,DRY,7.00,7.40,55.3,777.67,762.3
2020-12-17,12:55:00,DRY,6.60,7.35,54.5,777.50,764.2
2020-12-17,13:00:00,DRY,6.63,7.20,56.3,777.67,765.3
2020-12-17,13:05:00,DRY,8.25,7.00,58.0,777.50,765.8
2020-12-17,13:10:00,DRY,7.20,7.13,55.7,777.33,765.2
2020-12-17,13:15:00,DRY,7.40,7.40,54.5,777.00,765.4
2020-12-17,13:20:00,DRY,7.07,7.33,55.3,777.00,764.2
2020-12-17,13:25:00,DRY,7.20,7.65,52.5,777.00,762.0
2020-12-17,13:30:00,DRY,7.10,7.70,52.0,777.00,761.4
2020-12-17,13:35:00,DRY,9.30,7.60,54.0,777.00,757.7
2020-12-17,13:40:00,DRY,7.13,7.60,54.0,777.00,755.0
2020-12-17,13:45:00,DRY,6.95,7.55,56.0,777.00,751.1
2020-12-17,13:50:00,DRY,6.40,7.60,55.0,777.00,747.2
2020-12-17,13:55:00,DRY,6.60,7.35,56.0,777.00,743.2
2020-12-17,14:00:00,DRY,7.90,7.50,54.3,777.00,738.2
2020-12-17,14:05:00,DRY,7.55,7.55,54.0,777.00,732.0
2020-12-17,14:10:00,DRY,9.20,7.67,51.0,777.00,727.0
2020-12-17,14:15:00,DRY,5.55,7.40,55.5,777.00,718.8
2020-12-17,14:20:00,DRY,7.67,7.37,53.7,777.00,712.2
2020-12-17,14:25:00,DRY,5.85,7.40,57.5,777.00,704.8
2020-12-17,14:30:00,DRY,6.90,7.63,53.7,777.00,697.5
2020-12-17,14:35:00,DRY,6.95,7.65,54.0,777.00,687.6
2020-12-17,14:40:00,DRY,6.53,7.33,56.0,777.00,678.9
2020-12-17,14:45:00,DRY,6.90,7.50,51.0,777.00,670.5
2020-12-17,14:50:00,DRY,7.73,7.50,51.3,777.00,660.3
2020-12-17,14:55:00,DRY,7.65,7.40,50.5,777.00,649.8
2020-12-17,15:00:00,DRY,7.13,7.47,49.0,777.00,638.8
2020-12-17,15:05:00,DRY,5.45,7.20,54.5,777.00,628.0
2020-12-17,15:10:00,DRY,7.30,7.00,56.0,777.00,616.1
2020-12-17,15:15:00,DRY,6.05,6.90,59.0,777.00,604.2
2020-12-17,15:20:00,DRY,8.13,6.90,55.7,777.00,591.5
2020-12-17,15:25:00,DRY,9.30,7.05,51.5,776.50,579.4
2020-12-17,15:30:00,DRY,7.97,7.17,51.3,777.00,565.6
2020-12-17,15:35:00,DRY,8.75,6.95,55.5,777.00,551.9
2020-12-17,15:40:00,DRY,7.07,6.67,57.3,777.00,537.2
2020-12-17,15:45:00,DRY,7.00,6.40,62.5,777.00,522.3
2020-12-17,15:50:00,DRY,6.47,6.60,57.0,777.00,507.6
2020-12-17,15:55:00,DRY,5.75,6.40,60.5,777.00,492.2
2020-12-17,16:00:00,DRY,7.33,6.03,62.7,777.00,475.7
2020-12-17,16:05:00,DRY,5.20,5.85,65.0,777.00,459.5
2020-12-17,16:10:00,DRY,7.43,5.93,62.3,777.00,443.0
2020-12-17,16:15:00,DRY,6.75,6.05,62.5,777.00,426.4
2020-12-17,16:20:00,DRY,7.53,6.20,58.3,777.00,408.6
2020-12-17,16:25:00,DRY,7.80,6.15,59.0,777.00,391.1
2020-12-17,16:30:00,DRY,5.63,6.27,56.7,777.00,373.6
2020-12-17,16:35:00,DRY,7.75,6.35,55.0,777.00,355.9
2020-12-17,16:40:00,DRY,7.13,6.27,57.0,777.00,337.2
2020-12-17,16:45:00,DRY,5.60,6.05,60.0,777.00,318.7
2020-12-17,16:50:00,DRY,5.57,5.93,60.7,777.00,299.9
2020-12-17,16:55:00,DRY,8.60,5.80,61.0,777.00,280.9
2020-12-17,17:00:00,DRY,7.03,5.93,59.7,777.00,262.3
2020-12-17,17:05:00,DRY,7.50,6.10,55.0,777.00,243.3
2020-12-17,17:10:00,DRY,8.67,6.23,54.3,777.00,224.8
2020-12-17,17:15:00,DRY,6.80,6.15,54.5,777.00,206.4
2020-12-17,17:20:00,DRY,6.60,6.13,55.3,777.00,188.6
2020-12-17,17:25:00,DRY,7.60,5.95,56.5,777.00,170.9
2020-12-17,17:30:00,DRY,7.17,5.93,57.7,777.00,152.4
2020-12-17,17:35:00,DRY,6.30,5.90,58.0,777.00,130.9
2020-12-17,17:40:00,DRY,7.47,5.83,59.7,777.00,106.2
2020-12-17,17:45:00,DRY,7.60,5.95,59.5,777.00,82.5
2020-12-17,17:50:00,DRY,7.67,6.27,55.3,777.00,63.1
2020-12-17,17:55:00,DRY,4.40,6.25,54.5,777.00,45.6
2020-12-17,18:00:00,DRY,7.13,6.10,57.0,777.00,31.5
2020-12-17,18:05:00,DRY,6.50,6.05,59.0,777.00,20.4
2020-12-17,18:10:00,DRY,7.03,6.13,57.3,777.00,15.6
2020-12-17,18:15:00,DRY,5.30,6.20,57.0,777.00,11.4
2020-12-17,18:20:00,DRY,7.30,6.13,54.7,777.00,7.7
2020-12-17,18:25:00,DRY,7.80,6.30,53.0,777.00,4.5
2020-12-17,18:30:00,DRY,6.93,5.90,52.3,777.00,2.8
2020-12-17,18:35:00,DRY,6.60,5.75,51.5,777.00,1.9
2020-12-17,18:40:00,DRY,6.07,5.87,50.3,777.00,1.5
2020-12-17,18:45:00,DRY,6.50,6.00,49.5,777.00,1.1
2020-12-17,18:50:00,DRY,6.97,5.97,51.0,777.00,1.2
2020-12-17,18:55:00,DRY,7.10,6.10,51.0,777.00,1.0
2020-12-17,19:00:00,DRY,7.40,6.13,51.7,777.33,1.1
2020-12-17,19:05:00,DRY,7.60,6.10,52.0,777.00,1.4
2020-12-17,19:10:00,DRY,7.03,6.40,46.0,777.33,1.3
2020-12-17,19:15:00,DRY,7.30,6.30,48.5,777.50,1.3
2020-12-17,19:20:00,DRY,7.67,6.47,45.7,777.67,1.4
2020-12-17,19:25:00,DRY,6.65,6.40,47.0,777.00,1.3
2020-12-17,19:30:00,DRY,5.73,6.40,45.7,777.67,1.3
2020-12-17,19:35:00,DRY,6.55,6.50,42.0,778.00,1.2
2020-12-17,19:40:00,DRY,6.23,6.50,43.3,778.00,1.2
2020-12-17,19:45:00,DRY,6.05,6.60,41.5,778.00,0.6
2020-12-17,19:50:00,DRY,6.67,6.53,43.7,778.00,1.4
2020-12-17,19:55:00,DRY,5.15,6.50,44.0,778.00,1.2
2020-12-17,20:00:00,DRY,6.23,6.40,42.3,778.00,1.2
2020-12-17,20:05:00,DRY,6.95,6.20,45.5,778.00,1.4
2020-12-17,20:10:00,DRY,5.63,6.20,45.0,778.00,1.2
2020-12-17,20:15:00,DRY,6.10,6.30,44.0,778.00,1.4
2020-12-17,20:20:00,DRY,6.37,6.27,44.3,778.00,1.2
2020-12-17,20:25:00,DRY,6.70,6.45,43.0,778.00,1.4
2020-12-17,20:30:00,DRY,5.20,6.43,41.0,778.00,1.2
2020-12-17,20:35:00,DRY,6.90,6.45,38.5,778.00,1.1
2020-12-17,20:40:00,DRY,6.77,6.57,34.7,778.00,1.0
2020-12-17,20:45:00,DRY,4.70,6.60,34.0,778.00,1.1
2020-12-17,20:50:00,DRY,5.83,6.47,36.3,778.00,1.2
2020-12-17,20:55:00,DRY,5.60,6.50,35.5,778.00,1.4
2020-12-17,21:00:00,DRY,5.87,6.40,36.7,778.00,1.6
2020-12-17,21:05:00,DRY,5.50,6.35,35.0,778.00,1.4
2020-12-17,21:10:00,DRY,6.60,6.53,31.0,778.00,1.2
2020-12-17,21:15:00,DRY,6.50,6.70,29.0,778.00,2.1
2020-12-17,21:20:00,DRY,5.53,6.77,29.7,778.00,1.6
2020-12-17,21:25:00,DRY,5.25,6.65,30.0,778.00,2.7
2020-12-17,21:30:00,DRY,6.33,6.70,30.0,778.00,1.1
2020-12-17,21:35:00,DRY,6.45,6.90,28.0,778.00,1.2
2020-12-17,21:40:00,DRY,5.23,6.80,30.7,778.00,1.1
2020-12-17,21:45:00,DRY,4.60,6.80,29.5,778.00,1.7
2020-12-17,21:50:00,DRY,5.37,6.90,27.3,778.00,1.3
2020-12-17,21:55:00,DRY,4.65,7.05,24.5,778.00,0.9
2020-12-17,22:00:00,DRY,4.53,7.23,24.7,778.00,0.9
2020-12-17,22:05:00,DRY,5.60,7.20,25.5,778.00,1.1
2020-12-17,22:10:00,DRY,4.70,7.30,27.3,778.00,1.4
2020-12-17,22:15:00,DRY,5.05,7.40,28.0,778.00,1.1
2020-12-17,22:20:00,DRY,4.97,7.37,27.7,778.00,1.2
2020-12-17,22:25:00,DRY,4.15,7.25,33.0,778.00,0.9
2020-12-17,22:30:00,DRY,5.00,7.33,37.7,778.00,1.3
2020-12-17,22:35:00,DRY,4.70,7.30,29.5,778.00,1.6
2020-12-17,22:40:00,DRY,4.50,7.23,38.0,778.00,0.8
2020-12-17,22:45:00,DRY,4.85,7.30,30.0,778.00,1.1
2020-12-17,22:50:00,DRY,4.57,7.23,32.7,778.00,0.9
2020-12-17,22:55:00,DRY,5.20,7.20,30.0,778.00,0.8
2020-12-17,23:00:00,DRY,3.97,7.13,30.3,778.00,1.7
2020-12-17,23:05:00,DRY,4.40,7.15,33.5,778.00,1.3
2020-12-17,23:10:00,DRY,4.23,7.17,39.0,778.00,1.2
2020-12-17,23:15:00,DRY,4.70,7.20,34.5,778.00,2.2
2020-12-17,23:20:00,DRY,4.83,7.17,35.0,778.00,1.4
2020-12-17,23:25:00,DRY,4.80,7.15,32.5,778.00,1.1
2020-12-17,23:30:00,DRY,3.80,6.97,32.3,778.00,1.1
2020-12-17,23:35:00,DRY,4.25,6.95,32.0,778.00,0.9
2020-12-17,23:40:00,DRY,4.70,7.00,35.0,778.00,2.0
2020-12-17,23:45:00,DRY,3.45,6.95,38.0,778.00,1.2
2020-12-17,23:50:00,DRY,3.37,6.83,32.7,778.00,1.8
2020-12-17,23:55:00,DRY,3.65,6.80,38.0,778.00,1.7
2020-12-18,00:00:00,DRY,4.07,6.93,33.3,778.00,1.2
2020-12-18,00:05:00,DRY,3.65,6.90,40.0,778.00,1.0
2020-12-18,00:10:00,DRY,4.60,6.90,33.0,778.00,1.4
2020-12-18,00:15:00,DRY,5.20,7.10,31.5,778.00,1.2
2020-12-18,00:20:00,DRY,5.17,7.07,39.7,778.00,1.3
2020-12-18,00:25:00,DRY,4.55,7.05,45.5,778.00,0.9
2020-12-18,00:30:00,DRY,5.33,6.93,44.7,778.00,1.3
2020-12-18,00:35:00,DRY,4.85,7.05,44.5,778.00,1.1
2020-12-18,00:40:00,DRY,5.73,7.13,44.3,778.00,2.4
2020-12-18,00:45:00,DRY,4.35,7.10,43.0,777.50,1.4
2020-12-18,00:50:00,DRY,5.07,7.27,42.3,777.67,1.0
2020-12-18,00:55:00,DRY,4.15,7.35,41.5,778.00,1.0
2020-12-18,01:00:00,DRY,5.13,7.30,42.0,777.67,1.1
2020-12-18,01:05:00,DRY,4.95,7.35,42.0,777.00,1.2
2020-12-18,01:10:00,DRY,5.07,7.23,42.3,777.00,1.1
2020-12-18,01:15:00,DRY,4.55,7.25,43.5,777.00,1.2
2020-12-18,01:20:00,DRY,4.87,7.13,44.0,777.00,1.4
2020-12-18,01:25:00,DRY,5.55,7.05,45.0,777.00,2.0
2020-12-18,01:30:00,DRY,4.37,7.10,45.0,777.00,1.3
2020-12-18,01:35:00,DRY,4.00,7.10,45.0,777.00,1.1
2020-12-18,01:40:00,DRY,4.17,6.97,46.0,777.00,0.6
2020-12-18,01:45:00,DRY,3.60,6.95,46.0,777.00,1.6
2020-12-18,01:50:00,DRY,4.10,6.93,45.7,777.00,0.7
2020-12-18,01:55:00,DRY,3.60,6.90,46.0,777.00,1.1
2020-12-18,02:00:00,DRY,3.60,6.97,44.7,777.00,1.4
2020-12-18,02:05:00,DRY,3.90,7.00,42.5,777.00,0.9
2020-12-18,02:10:00,DRY,2.83,6.97,44.7,777.00,1.4
2020-12-18,02:15:00,DRY,3.25,6.50,48.5,777.00,1.2
2020-12-18,02:20:00,DRY,3.47,6.53,46.7,777.00,1.1
2020-12-18,02:25:00,DRY,3.90,6.45,40.5,777.00,1.2
2020-12-18,02:30:00,DRY,3.63,6.57,45.7,777.00,1.0
2020-12-18,02:35:00,DRY,4.10,6.65,46.5,777.00,1.1
2020-12-18,02:40:00,DRY,4.27,6.57,46.7,777.00,1.4
2020-12-18,02:45:00,DRY,4.25,6.50,47.0,777.00,2.1
2020-12-18,02:50:00,DRY,4.83,6.60,46.7,777.00,2.1
2020-12-18,02:55:00,DRY,4.00,6.50,47.5,777.00,0.8
2020-12-18,03:00:00,DRY,4.37,6.37,47.3,777.00,1.4
2020-12-18,03:05:00,DRY,4.20,6.35,46.0,777.00,1.4
2020-12-18,03:10:00,DRY,3.67,6.37,43.3,777.00,1.0
2020-12-18,03:15:00,DRY,4.10,6.50,47.0,777.00,1.1
2020-12-18,03:20:00,DRY,4.13,6.47,47.7,777.00,1.1
2020-12-18,03:25:00,DRY,3.80,6.35,49.0,777.00,1.2
2020-12-18,03:30:00,DRY,4.40,6.23,48.0,777.00,1.7
2020-12-18,03:35:00,DRY,3.90,6.25,48.5,777.00,1.1
2020-12-18,03:40:00,DRY,4.53,6.17,49.3,777.00,0.8
2020-12-18,03:45:00,DRY,4.95,6.30,50.5,777.00,1.2
2020-12-18,03:50:00,DRY,3.60,6.20,51.0,777.00,1.2
2020-12-18,03:55:00,DRY,4.20,6.15,51.0,777.00,1.0
2020-12-18,04:00:00,DRY,3.90,6.23,51.0,777.00,1.1
2020-12-18,04:05:00,DRY,3.80,6.20,49.5,777.00,1.2
2020-12-18,04:10:00,DRY,3.53,6.23,49.7,777.00,1.3
2020-12-18,04:15:00,DRY,3.50,6.25,50.0,777.00,1.4
2020-12-18,04:20:00,DRY,3.63,6.47,47.3,777.00,1.5
2020-12-18,04:25:00,DRY,3.95,6.60,44.0,777.00,2.1
2020-12-18,04:30:00,DRY,3.47,6.50,42.0,777.00,1.1
2020-12-18,04:35:00,DRY,3.20,6.50,34.5,777.00,1.1
2020-12-18,04:40:00,DRY,3.90,6.37,38.0,776.67,1.1
2020-12-18,04:45:00,DRY,4.15,6.25,46.0,777.00,1.2
2020-12-18,04:50:00,DRY,3.53,6.00,44.3,776.33,1.0
2020-12-18,04:55:00,DRY,3.65,5.85,37.0,777.00,1.3
2020-12-18,05:00:00,DRY,4.13,5.47,40.7,776.33,1.1
2020-12-18,05:05:00,DRY,4.40,5.40,51.0,777.00,1.2
2020-12-18,05:10:00,DRY,4.43,5.37,57.0,776.33,1.4
2020-12-18,05:15:00,DRY,4.40,5.45,55.0,776.00,0.8
2020-12-18,05:20:00,DRY,4.37,5.33,57.0,776.00,0.7
2020-12-18,05:25:00,DRY,4.80,5.30,59.0,776.00,1.2
2020-12-18,05:30:00,DRY,4.20,5.23,61.0,776.00,1.1
2020-12-18,05:35:00,DRY,4.45,5.10,63.0,776.00,1.1
2020-12-18,05:40:00,DRY,4.67,5.10,59.7,776.00,1.1
2020-12-18,05:45:00,DRY,5.00,5.15,62.0,776.00,0.8
2020-12-18,05:50:00,DRY,4.20,5.07,61.3,776.00,1.1
2020-12-18,05:55:00,DRY,4.00,5.25,60.0,776.00,1.1
2020-12-18,06:00:00,DRY,3.37,5.17,61.3,776.00,1.1
2020-12-18,06:05:00,DRY,3.45,5.40,55.0,776.00,0.9
2020-12-18,06:10:00,DRY,3.30,5.67,52.7,776.00,1.1
2020-12-18,06:15:00,DRY,3.55,5.65,52.0,776.00,1.1
2020-12-18,06:20:00,DRY,3.97,5.63,49.7,776.00,1.1
2020-12-18,06:25:00,DRY,4.55,6.10,37.5,776.00,1.3
2020-12-18,06:30:00,DRY,4.40,6.27,39.3,776.00,1.7
2020-12-18,06:35:00,DRY,4.45,6.30,30.0,776.00,1.1
2020-12-18,06:40:00,DRY,4.50,6.20,23.7,776.00,1.0
2020-12-18,06:45:00,DRY,5.05,6.45,16.5,776.00,0.8
2020-12-18,06:50:00,DRY,4.40,6.47,16.3,776.00,0.8
2020-12-18,06:55:00,DRY,4.45,6.50,20.0,776.00,1.1
2020-12-18,07:00:00,DRY,4.00,6.97,18.0,776.00,0.9
2020-12-18,07:05:00,DRY,3.40,6.55,28.0,776.00,0.6
2020-12-18,07:10:00,DRY,3.70,6.47,23.3,776.00,1.3
2020-12-18,07:15:00,DRY,3.35,6.30,17.5,776.00,0.9
2020-12-18,07:20:00,DRY,2.93,6.50,14.7,776.33,1.1
2020-12-18,07:25:00,DRY,2.75,6.55,14.0,776.00,0.9
2020-12-18,07:30:00,DRY,1.87,6.63,13.7,776.67,1.6
2020-12-18,07:35:00,DRY,2.45,6.70,14.0,776.00,1.5
2020-12-18,07:40:00,DRY,1.70,6.77,12.7,777.00,1.7
2020-12-18,07:45:00,DRY,1.60,7.20,10.5,777.00,2.6
2020-12-18,07:50:00,DRY,2.20,7.17,11.7,776.67,4.1
2020-12-18,07:55:00,DRY,2.45,7.10,11.5,777.00,5.2
2020-12-18,08:00:00,DRY,3.17,7.03,12.0,777.00,8.4
2020-12-18,08:05:00,DRY,3.10,7.40,10.5,776.50,10.2
2020-12-18,08:10:00,DRY,2.40,7.00,12.7,777.00,11.8
2020-12-18,08:15:00,DRY,2.90,6.90,13.0,777.00,14.9
2020-12-18,08:20:00,DRY,2.93,7.20,11.3,777.00,16.2
2020-12-18,08:25:00,DRY,2.05,7.25,10.5,777.00,17.6
2020-12-18,08:30:00,DRY,2.47,7.23,10.7,777.00,19.6
2020-12-18,08:35:00,DRY,2.60,7.55,9.0,777.00,23.3
2020-12-18,08:40:00,DRY,2.67,7.60,9.0,777.00,63.9
2020-12-18,08:45:00,DRY,2.35,7.80,9.0,777.00,173.9
2020-12-18,08:50:00,DRY,2.37,7.77,8.3,777.00,193.4
2020-12-18,08:55:00,DRY,2.25,8.15,8.0,777.00,213.0
2020-12-18,09:00:00,DRY,2.40,8.23,7.0,777.00,232.5
2020-12-18,09:05:00,DRY,2.15,8.10,8.0,777.00,252.8
2020-12-18,09:10:00,DRY,2.20,8.00,8.0,777.00,272.3
2020-12-18,09:15:00,DRY,2.20,8.15,8.0,777.00,292.4
2020-12-18,09:20:00,DRY,2.40,8.10,7.3,777.00,311.3
2020-12-18,09:25:00,DRY,2.40,8.10,8.0,777.00,328.4
2020-12-18,09:30:00,DRY,2.50,8.30,7.7,777.00,347.4
2020-12-18,09:35:00,DRY,2.35,8.20,8.5,777.00,366.0
2020-12-18,09:40:00,DRY,2.50,8.13,8.3,777.00,385.8
2020-12-18,09:45:00,DRY,2.60,8.30,8.0,777.00,402.6
2020-12-18,09:50:00,DRY,2.33,8.30,8.3,777.00,421.9
2020-12-18,09:55:00,DRY,2.05,8.40,8.5,777.00,437.9
2020-12-18,10:00:00,DRY,1.50,8.50,9.7,777.00,456.8
2020-12-18,10:05:00,DRY,2.30,8.65,7.0,777.00,473.4
2020-12-18,10:10:00,DRY,1.60,8.77,8.3,777.00,489.7
2020-12-18,10:15:00,DRY,1.65,8.70,7.5,777.00,505.2
2020-12-18,10:20:00,DRY,2.03,8.77,8.7,777.00,522.1
2020-12-18,10:25:00,DRY,2.10,8.65,8.0,777.00,536.6
2020-12-18,10:30:00,DRY,1.60,8.70,10.3,777.00,550.9
2020-12-18,10:35:00,DRY,2.15,8.65,10.0,777.00,565.5
2020-12-18,10:40:00,DRY,1.20,8.77,9.7,777.00,578.0
2020-12-18,10:45:00,DRY,1.60,8.80,8.0,777.00,592.9
2020-12-18,10:50:00,DRY,1.53,8.90,8.3,777.00,606.5
2020-12-18,10:55:00,DRY,1.50,8.90,10.5,777.00,619.5
2020-12-18,11:00:00,DRY,1.83,8.87,10.7,777.00,631.6
2020-12-18,11:05:00,DRY,1.95,8.80,12.5,777.00,635.3
2020-12-18,11:10:00,DRY,2.00,8.73,10.7,777.00,621.7
2020-12-18,11:15:00,DRY,1.85,8.80,10.5,777.00,577.3
2020-12-18,11:20:00,DRY,2.03,8.90,11.0,777.00,666.6
2020-12-18,11:25:00,DRY,1.30,9.00,8.5,777.00,686.8
2020-12-18,11:30:00,DRY,1.70,9.30,9.7,777.00,704.0
2020-12-18,11:35:00,DRY,2.60,9.40,9.0,777.00,732.8
2020-12-18,11:40:00,DRY,2.20,9.47,9.0,777.00,782.7
2020-12-18,11:45:00,DRY,2.80,9.60,10.5,777.00,510.8
2020-12-18,11:50:00,DRY,3.00,9.57,9.7,777.00,685.6
2020-12-18,11:55:00,DRY,3.50,9.75,12.5,777.00,690.5
2020-12-18,12:00:00,DRY,3.70,9.40,10.7,777.00,610.1
2020-12-18,12:05:00,DRY,3.25,9.10,9.5,777.00,597.7
2020-12-18,12:10:00,DRY,3.70,9.27,9.0,777.00,767.4
2020-12-18,12:15:00,DRY,3.75,9.30,9.0,777.00,763.4
2020-12-18,12:20:00,DRY,3.50,9.33,10.3,777.00,768.8
2020-12-18,12:25:00,DRY,3.95,9.20,10.0,777.00,742.8
2020-12-18,12:30:00,DRY,3.67,9.23,12.0,777.00,774.2
2020-12-18,12:35:00,DRY,3.70,9.10,14.0,777.00,779.9
2020-12-18,12:40:00,DRY,3.97,9.03,13.0,776.67,781.1
2020-12-18,12:45:00,DRY,4.60,9.10,11.5,776.50,780.9
2020-12-18,12:50:00,DRY,3.77,9.27,9.3,776.00,777.6
2020-12-18,12:55:00,DRY,3.00,9.30,10.5,776.00,783.7
2020-12-18,13:00:00,DRY,4.03,9.23,12.3,776.00,785.8
2020-12-18,13:05:00,DRY,3.55,9.15,10.5,776.00,793.4
2020-12-18,13:10:00,DRY,3.47,9.10,12.3,776.00,798.5
2020-12-18,13:15:00,DRY,4.05,9.10,9.0,776.00,802.0
2020-12-18,13:20:00,DRY,2.83,9.23,10.3,776.00,800.3
2020-12-18,13:25:00,DRY,2.75,8.75,16.5,776.00,789.8
2020-12-18,13:30:00,DRY,3.50,9.10,16.0,776.00,792.3
2020-12-18,13:35:00,DRY,2.90,9.00,13.0,776.00,781.7
2020-12-18,13:40:00,DRY,3.37,9.27,10.0,776.00,772.4
2020-12-18,13:45:00,DRY,2.85,9.30,10.0,776.00,774.6
2020-12-18,13:50:00,DRY,3.60,9.23,10.3,776.00,776.0
2020-12-18,13:55:00,DRY,4.70,9.30,13.0,776.00,770.8
2020-12-18,14:00:00,DRY,4.23,9.10,10.0,776.00,765.2
2020-12-18,14:05:00,DRY,4.75,9.00,9.0,776.00,759.3
2020-12-18,14:10:00,DRY,4.23,8.80,12.7,776.00,754.5
2020-12-18,14:15:00,DRY,3.80,8.85,13.5,776.00,745.7
2020-12-18,14:20:00,DRY,3.73,8.87,11.3,776.00,737.5
2020-12-18,14:25:00,DRY,4.85,8.70,8.5,776.00,726.9
2020-12-18,14:30:00,DRY,4.37,8.43,12.3,776.00,714.3
2020-12-18,14:35:00,DRY,4.30,8.35,13.0,776.00,702.6
2020-12-18,14:40:00,DRY,4.60,8.30,11.3,776.00,694.4
2020-12-18,14:45:00,DRY,4.95,8.25,12.5,776.00,685.6
2020-12-18,14:50:00,DRY,3.47,8.13,11.3,775.67,675.0
2020-12-18,14:55:00,DRY,4.00,8.10,12.5,775.50,664.9
2020-12-18,15:00:00,DRY,3.23,8.07,12.7,775.33,653.5
2020-12-18,15:05:00,DRY,3.60,8.10,12.5,775.50,642.1
2020-12-18,15:10:00,DRY,2.77,8.13,8.7,775.00,629.5
2020-12-18,15:15:00,DRY,2.50,8.10,12.5,775.00,616.2
2020-12-18,15:20:00,DRY,2.83,8.07,15.7,775.00,604.0
2020-12-18,15:25:00,DRY,2.30,8.00,13.5,775.00,591.2
2020-12-18,15:30:00,DRY,2.27,7.90,13.0,775.00,577.6
2020-12-18,15:35:00,DRY,2.70,7.75,14.5,775.00,562.5
2020-12-18,15:40:00,DRY,2.77,7.70,15.0,775.00,548.3
2020-12-18,15:45:00,DRY,2.90,7.60,15.0,775.00,533.2
2020-12-18,15:50:00,DRY,3.47,7.60,13.7,775.67,518.4
2020-12-18,15:55:00,DRY,4.10,7.40,15.0,775.00,502.2
2020-12-18,16:00:00,DRY,4.33,7.10,14.3,775.00,486.3
2020-12-18,16:05:00,DRY,3.75,6.90,16.5,775.50,469.1
2020-12-18,16:10:00,DRY,4.57,7.13,13.0,775.00,452.9
2020-12-18,16:15:00,DRY,3.45,6.85,15.0,776.00,436.2
2020-12-18,16:20:00,DRY,4.00,6.67,14.3,776.00,418.2
2020-12-18,16:25:00,DRY,3.20,6.50,13.5,775.50,400.4
2020-12-18,16:30:00,DRY,3.60,6.50,14.5,776.00,379.5
2020-12-18,16:35:00,DRY,2.90,6.50,14.0,776.00,363.9
2020-12-18,16:40:00,DRY,2.77,6.57,13.7,775.67,346.0
2020-12-18,16:45:00,DRY,3.05,6.50,15.0,776.00,328.1
2020-12-18,16:50:00,DRY,3.00,6.60,15.3,776.00,307.9
2020-12-18,16:55:00,DRY,2.60,6.70,15.0,776.00,289.5
2020-12-18,17:00:00,DRY,2.30,6.70,15.0,776.00,269.3
2020-12-18,17:05:00,DRY,2.20,6.70,15.5,776.00,250.1
2020-12-18,17:10:00,DRY,2.70,6.80,14.7,776.00,232.1
2020-12-18,17:15:00,DRY,2.65,6.75,14.0,776.00,213.9
2020-12-18,17:20:00,DRY,2.87,6.97,13.7,776.00,195.1
2020-12-18,17:25:00,DRY,3.15,6.70,15.0,776.00,177.6
2020-12-18,17:30:00,DRY,3.27,6.73,15.0,776.00,159.5
2020-12-18,17:35:00,DRY,2.80,6.70,15.0,776.00,138.2
2020-12-18,17:40:00,DRY,3.07,6.10,15.3,776.00,112.1
2020-12-18,17:45:00,DRY,3.40,5.95,15.0,776.00,87.1
2020-12-18,17:50:00,DRY,3.33,5.87,14.0,776.00,66.3
2020-12-18,17:55:00,DRY,3.95,6.10,14.5,776.00,48.0
2020-12-18,18:00:00,DRY,3.77,5.90,15.7,776.00,33.9
2020-12-18,18:05:00,DRY,3.20,5.70,16.0,776.00,20.7
2020-12-18,18:10:00,DRY,3.50,5.73,15.3,776.00,13.3
2020-12-18,18:15:00,DRY,3.35,5.80,16.0,776.00,11.5
2020-12-18,18:20:00,DRY,3.30,5.80,16.0,776.00,6.2